Home > Time Zones > World Clock > Weather > U.S.A. > Bend > Past weeks

Flag for U.S.A. Weather past 2 weeks in Bend, Oregon, U.S.A.

Now
85 °F

Sunny.


Feels Like: 82 °F
Forecast: 61 / 90 °F
Wind: 3 mph from North

Location: Roberts Field Airport

Current Time: Jul 5, 2015 at 12:01:46 PM

Latest Report: Jul 5, 2015 at 10:56 AM


Visibility: 10 mi

Pressure: 29.85 "Hg (26.35 "Hg at 1103m altitude)

Humidity: 20%

Dew point: 39 °F

Location of BendLocation

Historic Weather in Bend — Graph

°F

Bend temperature yesterday

Maximum temperature yesterday: 94 °F (at 1:56 PM)
Minimum temperature yesterday: 59 °F (at 3:56 AM)
Average temperature yesterday: 76 °F

Past Weeks' High & Low Weather Summary

 TemperatureHumidityPressure
High100 °F (Jun 26, 3:56 PM)82% (Jun 23, 4:56 AM)30.12 "Hg (Jun 23, 4:56 AM)
Low41 °F (Jun 23, 4:56 AM)8% (Jul 3, 12:56 PM)29.75 "Hg (Jul 4, 4:56 PM)
Average75 °F37%29.94 "Hg
* Reported Jun 20 10:56 AM — Jul 5 10:56 AM, Bend, Weather by CustomWeather, © 2015

Note: Actual official high and low records may vary slightly from our data, if they occured in-between our weather recording intervals... More about our weather records

Advertising

Bend weather history for previous 24 hours

 ConditionsComfort  
Time TempWeatherWind HumidityBarometerVisibility
10:56 AM
Sun, Jul 5
85 °FSunny.3 mph20%29.85 "Hg10 mi
9:56 AM80 °FSunny.No wind24%29.84 "Hg10 mi
8:56 AM75 °FSunny.No wind32%29.84 "Hg10 mi
7:56 AM69 °FSunny.No wind39%29.85 "Hg10 mi
6:56 AM63 °FSunny.No wind43%29.86 "Hg10 mi
5:56 AM52 °FClear.6 mph57%29.85 "Hg10 mi
4:56 AM56 °FClear.No wind49%29.83 "Hg10 mi
3:56 AM57 °FClear.3 mph49%29.81 "Hg10 mi
2:56 AM59 °FClear.3 mph46%29.80 "Hg10 mi
1:56 AM61 °FClear.5 mph42%29.79 "Hg10 mi
12:56 AM64 °FClear.5 mph40%29.79 "Hg10 mi
11:56 PM
Sat, Jul 4
60 °FClear.No wind46%29.80 "Hg10 mi
10:56 PM65 °FClear.6 mph40%29.80 "Hg10 mi
9:56 PM77 °FClear.6 mph28%29.78 "Hg10 mi
8:56 PM81 °FSunny.8 mph24%29.78 "Hg10 mi
7:56 PM85 °FSunny.13 mph20%29.76 "Hg10 mi
6:56 PM85 °FSunny.16 mph24%29.76 "Hg10 mi
5:56 PM88 °FSunny.16 mph20%29.76 "Hg10 mi
4:56 PM90 °FSunny.15 mph19%29.75 "Hg10 mi
3:56 PM94 °FSunny.13 mph15%29.77 "Hg10 mi
2:56 PM93 °FSunny.12 mph15%29.77 "Hg10 mi
1:56 PM94 °FSunny.10 mph14%29.78 "Hg10 mi
12:56 PM89 °FSunny.3 mph18%29.80 "Hg10 mi
Weather by CustomWeather, © 2015

See weather overviewHow to use our weather pages